OBJECT D, 63294

Orbit data source: Space-Track

You're viewing an Uncataloged Satellite

Recently launched and/or uncataloged satellites may have evolving metadata. Metadata may include but not limited to: Owner, Maufacturer, Bus, Motor, and Mission.

OBJECT D, 63294 is a Chinese satellite in SSO that was launched on Mon, 17 Mar 2025 UTC via a GUSHENXING 1 launch vehicle from the Jiuquan Satellite Launch Center, China (JSC). Unknown objects in Earth's orbit typically refer to objects detected orbiting the Earth but have not yet been identified or cataloged. These objects could be anything from previously untracked satellites, spent rocket stages, debris from satellite collisions, or even natural meteoroids temporarily captured by Earth's gravity.

Loading next visibility...
Identifier
63294, 2025-055D
Orbit
SSO
Country
Flag of CNCN / PRC
Related business
None
Manufacturer
Unknown
Mission
Operational Commercial Meteo Radio Occ.
Bus & Motor
Unknown
Mass
Unknown
Launch date (UTC)
2025-03-17 (7 months ago)
Launch vehicle
GUSHENXING 1
Launch site
Jiuquan Satellite Launch Center, China (JSC)
Object type
Unknown
Shape & HBR
Box + 1 Pan, 0.6 m
Radar Cross Section
5.339 m², Medium (>0.1 m² and < 1m²)

Expand to show TLE details & history
Last TLE update: 8 hours ago

TLE from 8 hours ago
0 OBJECT D
1 63294U 25055D   25290.95397858  .00017244  00000-0  10314-2 0  9992
2 63294  97.6261  64.9889 0016237 251.5957 108.3508 15.11008537 32353
Epoch: 2025-10-17T22:53Z
TLE epoch observation values (Epoch: 2025-10-17T22:53:43.749Z)
Latitude
0.00005°
Longitude
54.86466°
Altitude
539.745 km
Speed
7.591 km/s
True Right ascension
04h 19m 57s
True Declination
0° 00' 00"
Sunlit
Object was in full shadow at epoch
Visualization orbit readout
Latitude
Unknown
Longitude
Unknown
Altitude
Unknown
Speed
Unknown
Apparent Right ascension
Unknown
Apparent Declination
Unknown
Sunlit
N/A
Visualization observer readout
Local Sidereal Time
02:05:47
Azimuth
Unknown
Elevation
Unknown
Doppler factor
Unknown
Orbital elements
Apogee altitude
541.327 km
Perigee altitude
518.893 km
Semi-major axis
6,908.247 km
Eccentricity
0.00162
Inclination
97.6261°
RAAN
64.9889°
Arg. of periapsis
251.5957°
True anomaly
108.52729°
Mean anomaly
108.3508°
Eccentric anomaly
108.43905°
Mean motion
3.78 °/min
Orbital period
95.24 mins
BSTAR
0.0010314
Loading maneuver chart data...
Computing Atmospheric mass density...
Loading historical data...
Loading historical data...
Loading historical data...
Loading historical data...
Loading historical data...
Loading historical data...
Loading historical data...

Documentation

Showing up to 5 results
|